Elk City, ID

2:31 PM PDT on September 24, 2016 (GMT -0700)
Lowell

Weather History for KP69 - September, 2013

Change the Weather History Date:

Sunday, September 29, 2013

  Actual Average Record
Temperature  
Mean Temperature 50 °F -  
Max Temperature 53 °F 68 °F 84 °F (2003)
Min Temperature 48 °F 42 °F 34 °F (1999)
Degree Days  
Heating Degree Days 14    
Moisture  
Dew Point 48 °F    
Average Humidity 92    
Maximum Humidity 97    
Minimum Humidity 86    
Precipitation  
Precipitation 0.52 in - - ()
Sea Level Pressure  
Sea Level Pressure 29.75 in    
Wind  
Wind Speed 2 mph (West)    
Max Wind Speed 8 mph    
Max Gust Speed -    
Averages and records for this station are not official NWS values.
T = Trace of Precipitation, MM = Missing Value Source: NWS Daily Summary

Daily Weather History Graph

Daily Weather History Graph

Search for Another Location

Airport or City:

Trip Planner

Search our weather history database for the weather conditions in past years. The results will help you decide how hot, cold, wet, or windy it might be!

Date:

Astronomy

Sep. 29, 2013 Rise Set
Actual Time 7:38 AM MDT 7:25 PM MDT
Civil Twilight 7:08 AM MDT 7:55 PM MDT
Nautical Twilight 6:33 AM MDT 8:30 PM MDT
Astronomical Twilight 5:58 AM MDT 9:05 PM MDT
Moon 2:09 AM MDT (9/29) 4:37 PM MDT (9/29)
Length of Visible Light 12h 46m
Length of Day
11h 46m
Waning Crescent, 26% of the Moon is Illuminated
Sep 29
Waning Crescent
Oct 4
New
Oct 11
First Quarter
Oct 18
Full
Oct 26
Last Quarter

Hourly Weather History & Observations

Time (MDT) Temp. Dew Point Humidity Pressure Visibility Wind Dir Wind Speed Gust Speed Precip Events Conditions
12:52 AM 53.1 °F 51.1 °F 93% 29.64 in - Calm Calm - N/A   Unknown
1:52 AM 52.0 °F 51.1 °F 97% 29.60 in - NW 8.1 mph - N/A   Unknown
2:52 AM 53.1 °F 51.1 °F 93% 29.57 in - Variable 5.8 mph - N/A   Unknown
3:52 AM 53.1 °F 51.1 °F 93% 29.56 in - NW 3.5 mph - N/A   Unknown
4:52 AM 53.1 °F 52.0 °F 96% 29.62 in - Calm Calm - 0.01 in   Unknown
5:52 AM 51.1 °F 48.9 °F 92% 29.72 in - Calm Calm - 0.05 in   Unknown
6:52 AM 50.0 °F 48.0 °F 93% 29.78 in - Calm Calm - 0.12 in   Unknown
7:52 AM 48.9 °F 48.0 °F 97% 29.78 in - Calm Calm - 0.04 in   Unknown
8:52 AM 48.9 °F 46.9 °F 93% 29.78 in - Calm Calm - 0.01 in   Unknown
9:52 AM 48.9 °F 48.0 °F 97% 29.79 in - Calm Calm - N/A   Unknown
10:52 AM 50.0 °F 48.0 °F 93% 29.80 in - Calm Calm - N/A   Unknown
11:52 AM 50.0 °F 48.0 °F 93% 29.80 in - Calm Calm - N/A   Unknown
12:52 PM 51.1 °F 48.9 °F 92% 29.82 in - Calm Calm - N/A   Unknown
1:52 PM 51.1 °F 48.9 °F 92% 29.82 in - Calm Calm - N/A   Unknown
2:52 PM 51.1 °F 48.0 °F 89% 29.81 in - Calm Calm - 0.02 in   Unknown
3:52 PM 50.0 °F 46.9 °F 89% 29.82 in - West 3.5 mph - 0.02 in   Unknown
4:52 PM 50.0 °F 48.0 °F 93% 29.82 in - WSW 3.5 mph - 0.02 in   Unknown
5:52 PM 50.0 °F 48.0 °F 93% 29.82 in - Calm Calm - 0.02 in   Unknown
6:52 PM 50.0 °F 46.9 °F 89% 29.81 in - Calm Calm - 0.02 in   Unknown
7:52 PM 50.0 °F 46.0 °F 86% 29.80 in - Variable 6.9 mph - 0.01 in   Unknown
8:52 PM 48.9 °F 45.0 °F 86% 29.79 in - WSW 5.8 mph - 0.04 in   Unknown
9:52 PM 48.0 °F 46.0 °F 93% 29.78 in - Calm Calm - 0.04 in   Unknown
10:52 PM 48.0 °F 46.0 °F 93% 29.76 in - Calm Calm - 0.06 in   Unknown
11:52 PM 48.0 °F 46.0 °F 93% 29.73 in - Calm Calm - 0.04 in   Unknown